Location: Bernay
(48.6766°N, 2.9386°E)
Time: 06:01:49
(UTC+00:00)

Nadezhda 1 Rocket - Pass Details

Date: 12 January 2026
Orbit: 941 x 1004 km, 83.0° (Epoch: 17 February)

Event Time Altitude Azimuth Distance (km) Brightness Sun altitude
Rises 16:39:24 0° 171° (S) 3,602 7.2 -4.2°
Reaches altitude 10° 16:41:56 10° 167° (SSE) 2,656 6.5 -4.5°
Maximum altitude 16:47:47 53° 92° (E) 1,141 4.1 -5.4°
Drops below altitude 10° 16:53:40 10° 17° (NNE) 2,671 5.9 -6.3°
Sets 16:56:13 0° 13° (NNE) 3,624 6.6 -6.7°
